Tracking 18942 objects as of 18-Jan-2018
HD Live streaming from Space Station
objects crossing your sky now

FLOCK 3P 54

Track FLOCK 3P 54 now!
10-day predictions
FLOCK 3P 54 is classified as:


NORAD ID: 42014
Int'l Code: 2017-008BU
Perigee: 496.3 km
Apogee: 506.8 km
Inclination: 97.5 °
Period: 94.5 minutes
Semi major axis: 6872 km
RCS: Unknown
Launch date: February 15, 2017
Source: United States (US)
Launch site: SRIHARIKOTA (SRI)
aabbcc
Your satellite tracking list
Your tracking list is empty




NASA's NSSDC Master Catalog

Two Line Element Set (TLE):
1 42014U 17008BU  18017.48750398 +.00002905 +00000-0 +12360-3 0  9999
2 42014 097.4702 083.2154 0007691 174.9692 185.1623 15.23792965051164
Source of the keplerian elements: AFSPC